DateTimeUTC,F1_A11,F1_S11,BsB_S11,BsG_S11,BsR_S11,BbsB_S11,BbsG_S11,BbsR_S11,BaB_A11,BaG_A11,BaR_A11,Tu_S11,T_S11,Uu_S11,U_S11,P_S11,T1_A11
2021-05-28T00:00:00Z,00040200,20000000,,,,,,,0000.26,0000.30,0000.10,18.3,25.2,02.6,01.7,0678.9,31.0
2021-05-28T00:01:00Z,00040200,20000000,,,,,,,0000.68,0000.22,0000.44,18.3,25.3,02.6,01.7,0678.9,31.0
2021-05-28T00:02:00Z,00040200,20000000,,,,,,,0000.27,0000.45,0000.56,18.3,25.3,02.6,01.7,0678.9,31.0
2021-05-28T00:03:00Z,00040200,60000000,,,,,,,0001.09,0000.49,0000.66,18.3,25.3,02.6,01.7,0678.9,31.0
2021-05-28T00:04:00Z,00040200,40000000,0002.83,0001.73,0001.34,0000.35,0000.03,0000.07,0000.80,0001.31,0000.49,18.4,25.0,03.0,02.0,0679.7,31.0
2021-05-28T00:05:00Z,00040200,00000000,0002.68,0001.86,0001.28,-000.10,0000.32,0000.10,0000.73,0000.30,0000.39,18.5,25.0,03.0,02.0,0679.8,31.0
2021-05-28T00:06:00Z,00040200,00000000,0003.69,0001.87,0001.29,0000.80,0000.50,0000.10,0000.59,0000.39,0000.30,18.5,25.0,02.9,01.9,0679.8,31.0
2021-05-28T00:07:00Z,00040200,00000000,0004.19,0002.78,0001.95,0000.63,0000.48,0000.29,0011.81,0010.67,0008.60,18.5,25.0,02.7,01.8,0679.9,31.0
2021-05-28T00:08:00Z,00040200,00000000,0003.45,0002.10,0001.94,0000.49,0000.52,0000.50,0006.64,0006.06,0003.91,18.5,24.9,02.4,01.6,0679.9,31.0
2021-05-28T00:09:00Z,00040200,00000000,0017.80,0013.16,0008.13,0003.77,0003.11,0002.07,0204.04,0188.47,0152.52,18.5,24.9,02.3,01.5,0679.9,31.0
2021-05-28T00:10:00Z,00140200,00000000,0015.58,0011.39,0006.95,0002.46,0002.27,0001.79,0333.39,0310.36,0253.52,18.5,24.9,02.5,01.7,0679.9,31.0
2021-05-28T00:10:13Z,00140200,00000000,0015.58,0011.39,0006.95,0002.46,0002.27,0001.79,,,,18.5,24.9,02.5,01.7,0679.9,31.0
2021-05-28T00:10:14Z,,00000000,0015.58,0011.39,0006.95,0002.46,0002.27,0001.79,,,,18.5,24.9,02.5,01.7,0679.9,
2021-05-28T00:10:21Z,00000200,00000000,0015.58,0011.39,0006.95,0002.46,0002.27,0001.79,,,,18.5,24.9,02.5,01.7,0679.9,30.9
2021-05-28T00:11:00Z,00000200,00000000,0003.62,0002.37,0001.77,0000.67,0000.69,0000.59,0025.09,0023.34,0018.22,18.4,24.9,02.8,01.9,0679.8,30.9
2021-05-28T00:12:00Z,00000200,00000000,0003.58,0002.36,0001.61,0000.01,0000.47,0000.20,0008.58,0007.71,0006.05,18.4,24.9,02.9,02.0,0679.8,30.9
2021-05-28T00:13:00Z,00000200,00000000,0003.43,0002.23,0001.66,0000.61,0000.55,0000.33,0012.70,0011.77,0008.23,18.4,24.9,02.8,01.9,0679.8,30.9
2021-05-28T00:14:00Z,00000200,00000000,0002.29,0001.77,0001.71,0000.18,0000.38,0000.53,0001.92,0001.22,0001.27,18.4,24.9,02.9,01.9,0679.8,30.9
2021-05-28T00:15:00Z,00000200,00000000,0003.58,0002.01,0001.45,0000.58,0000.36,0000.42,0001.15,0001.31,0000.69,18.4,24.9,03.0,02.0,0679.8,30.9
2021-05-28T00:16:00Z,00000200,00000000,0002.88,0002.09,0001.38,0000.28,0000.51,0000.35,0008.01,0006.84,0005.43,18.4,24.9,02.8,01.9,0679.9,30.9
2021-05-28T00:17:00Z,00000200,00000000,0002.74,0002.34,0001.82,0000.73,0000.47,0000.17,0012.44,0011.08,0008.16,18.4,24.9,02.8,01.9,0679.8,30.9
2021-05-28T00:18:00Z,00000200,00000000,0002.65,0002.10,0001.40,0000.33,0000.61,0000.33,0004.06,0003.73,0003.06,18.4,24.9,02.9,02.0,0679.8,30.9
2021-05-28T00:19:00Z,00000200,00000000,0002.67,0001.92,0001.59,0000.02,0000.47,0000.24,0001.98,0001.92,0001.27,18.4,24.9,03.0,02.0,0679.8,30.9
2021-05-28T00:20:00Z,00000200,00000000,0003.03,0001.69,0001.46,-000.37,0000.40,0000.43,0001.79,0001.35,0001.25,18.4,24.9,03.0,02.0,0679.8,30.9
2021-05-28T00:21:00Z,00000200,00000000,0002.49,0001.62,0001.22,0000.29,0000.40,0000.39,0000.98,0001.22,0000.93,18.4,24.8,03.2,02.2,0679.8,30.9
2021-05-28T00:22:00Z,00000200,00000000,0002.46,0001.79,0001.42,-000.15,0000.36,0000.31,0001.06,0000.49,0000.69,18.4,24.8,03.0,02.1,0679.9,30.9
2021-05-28T00:23:00Z,00000200,00000000,0003.25,0001.99,0001.37,0000.44,0000.22,0000.29,0003.07,0002.93,0001.96,18.4,24.8,02.8,01.9,0679.9,30.9
2021-05-28T00:24:00Z,00000200,00000000,0004.83,0003.13,0002.33,0001.00,0000.73,0000.47,0038.96,0034.24,0025.41,18.4,24.8,02.7,01.8,0679.8,30.9
2021-05-28T00:25:00Z,00000200,00000000,0003.85,0002.98,0001.81,0000.52,0000.64,0000.30,0034.30,0031.01,0022.84,18.4,24.8,02.7,01.8,0679.8,30.9
2021-05-28T00:26:00Z,00000200,00000000,0004.62,0002.40,0001.93,0000.28,0000.47,0000.35,0024.39,0021.79,0016.56,18.4,24.8,02.7,01.8,0679.8,30.9
2021-05-28T00:27:00Z,00000200,00000000,0003.11,0002.02,0001.29,0000.73,0000.41,0000.14,0008.02,0007.72,0005.32,18.4,24.8,02.8,01.9,0679.8,30.9
2021-05-28T00:28:00Z,00000200,00000000,0003.05,0001.83,0001.60,0000.32,0000.23,0000.46,0001.35,0000.77,0000.79,18.4,24.8,02.8,01.9,0679.8,30.9
2021-05-28T00:29:00Z,00000200,00000000,0003.02,0002.09,0001.33,0000.49,0000.59,0000.53,0001.06,0001.25,0000.97,18.4,24.8,02.7,01.8,0679.8,30.9
2021-05-28T00:30:00Z,00000200,00000000,0002.87,0002.17,0001.33,0000.29,0000.46,0000.22,0001.59,0000.90,0000.62,18.4,24.8,02.8,01.9,0679.8,30.9
2021-05-28T00:31:00Z,00000200,00000000,0002.48,0001.73,0001.74,0000.61,0000.44,0000.61,0001.19,0000.86,0000.64,18.3,24.8,02.7,01.8,0679.8,30.9
2021-05-28T00:32:00Z,00000200,00000000,0004.45,0002.70,0001.72,0000.31,0000.48,0000.53,0024.37,0022.15,0016.32,18.3,24.8,02.5,01.7,0679.8,30.9
2021-05-28T00:33:00Z,00000200,00000000,0002.61,0002.05,0001.55,0000.22,0000.40,0000.67,0009.35,0008.15,0006.19,18.3,24.7,02.2,01.5,0679.8,30.9
2021-05-28T00:34:00Z,00000200,00000000,0003.07,0002.12,0001.50,0000.09,0000.31,0000.20,0002.48,0002.22,0001.48,18.3,24.8,02.1,01.4,0679.8,30.8
2021-05-28T00:35:00Z,00000200,00000000,0002.27,0002.06,0001.55,0000.79,0000.33,0000.23,0001.22,0001.16,0001.20,18.3,24.7,02.3,01.5,0679.8,30.8
2021-05-28T00:36:00Z,00000200,00000000,0002.81,0001.72,0001.42,0000.89,0000.26,0000.13,0001.39,0001.06,0000.95,18.3,24.7,02.5,01.7,0679.8,30.9
2021-05-28T00:37:00Z,00000200,00000000,0002.82,0002.07,0001.33,0000.21,0000.41,0000.24,0001.14,0001.11,0000.64,18.3,24.7,02.6,01.7,0679.8,30.9
2021-05-28T00:38:00Z,00000200,00000000,0002.80,0002.11,0001.21,-000.17,0000.26,0000.24,0001.19,0001.18,0000.76,18.3,24.7,02.6,01.7,0679.8,30.9
2021-05-28T00:39:00Z,00000200,00000000,0002.81,0002.27,0001.47,0000.15,0000.51,0000.42,0005.62,0004.89,0003.60,18.3,24.7,02.5,01.7,0679.8,30.8
2021-05-28T00:40:00Z,00000200,00000000,0029.53,0020.52,0012.86,0005.90,0004.68,0003.55,0454.52,0409.73,0314.56,18.3,24.7,02.4,01.6,0679.9,30.9
2021-05-28T00:41:00Z,00000200,00000000,0009.82,0006.75,0004.39,0001.60,0001.33,0000.80,0186.88,0172.65,0135.99,18.3,24.7,02.3,01.6,0679.8,30.9
2021-05-28T00:42:00Z,00000200,00000000,0002.94,0001.69,0001.55,0000.26,0000.10,0000.41,0004.86,0004.64,0003.15,18.2,24.7,02.3,01.5,0679.8,30.9
2021-05-28T00:43:00Z,00000200,00000000,0002.13,0002.33,0001.58,0000.63,-000.16,0000.56,0003.61,0003.02,0002.33,18.2,24.7,02.4,01.6,0679.8,30.9
2021-05-28T00:44:00Z,00000200,00000000,0019.18,0013.14,0008.24,0004.36,0003.03,0002.03,0286.15,0259.28,0200.54,18.2,24.7,02.9,01.9,0679.8,30.9
2021-05-28T00:45:00Z,00000200,00000000,0006.48,0004.33,0003.04,0001.28,0000.96,0000.79,0086.81,0080.09,0062.64,18.2,24.7,02.8,01.9,0679.7,30.9
2021-05-28T00:46:00Z,00000200,00000000,0002.72,0001.77,0001.37,0000.16,0000.39,0000.05,0006.30,0005.93,0004.63,18.2,24.7,02.9,02.0,0679.7,30.9
2021-05-28T00:47:00Z,00000200,00000000,0003.09,0002.01,0001.18,0000.78,0000.61,0000.42,0006.82,0005.98,0004.59,18.2,24.6,03.0,02.0,0679.6,30.9
2021-05-28T00:48:00Z,00000200,00000000,0003.01,0001.88,0001.45,0000.33,0000.50,0000.36,0002.23,0002.23,0001.46,18.2,24.6,03.0,02.0,0679.5,30.8
2021-05-28T00:49:00Z,00000200,00000000,0003.39,0001.92,0001.38,0000.13,0000.41,0000.33,0002.00,0001.72,0001.61,18.2,24.7,03.0,02.0,0679.5,30.9
2021-05-28T00:50:00Z,00000200,00000000,0003.08,0001.97,0001.58,0000.14,0000.30,0000.45,0001.89,0001.29,0000.91,18.2,24.6,03.1,02.1,0679.5,30.9
2021-05-28T00:51:00Z,00000200,00000000,0002.27,0001.75,0001.46,0000.39,0000.19,0000.26,0001.56,0001.58,0001.42,18.2,24.6,03.3,02.2,0679.5,30.8
2021-05-28T00:52:00Z,00000200,00000000,0003.05,0001.56,0001.28,0000.11,0000.23,0000.19,0001.67,0001.64,0001.17,18.2,24.6,03.4,02.3,0679.5,30.8
2021-05-28T00:53:00Z,00000200,00000000,0003.01,0001.73,0001.61,0000.50,0000.24,0000.60,0001.71,0001.36,0001.09,18.2,24.6,03.5,02.3,0679.5,30.8
2021-05-28T00:54:00Z,00000200,00000000,0002.88,0001.90,0001.18,0000.11,0000.36,0000.35,0001.52,0001.29,0000.90,18.2,24.6,03.5,02.4,0679.5,30.8
2021-05-28T00:55:00Z,00000200,00000000,0003.00,0001.78,0000.99,0000.34,0000.36,0000.32,0000.83,0001.17,0000.79,18.1,24.6,03.6,02.4,0679.5,30.9
2021-05-28T00:56:00Z,00000200,00000000,0002.48,0001.60,0001.17,0000.35,0000.11,0000.37,0001.41,0000.88,0000.98,18.1,24.6,03.7,02.5,0679.5,30.8
2021-05-28T00:57:00Z,00000200,40000000,,,,,,,0001.04,0001.20,0000.63,18.2,24.6,03.3,02.2,0679.5,30.8
2021-05-28T00:58:00Z,00000200,60000000,,,,,,,-002.18,-002.57,-002.60,17.9,24.8,03.4,02.2,0678.6,30.8
2021-05-28T00:59:00Z,00000200,20000000,,,,,,,0000.09,0000.20,-000.29,17.9,24.9,03.1,02.0,0678.6,30.8
